Location: Sabana Grande
(18.0777°N, 66.9605°W)
Time: 04:23:29
(UTC-04:00)

ACS3 Solar Sail - Pass Details

Date: 22 September 2024
Orbit: 960 x 1033 km, 97.5° (Epoch: 12 October)

Event Time Altitude Azimuth Distance (km) Brightness Sun altitude
Exits shadow 19:43:26 12° 41° (NE) 2,701 3.8 -19.8°
Drops below altitude 10° 19:44:04 10° 36° (NE) 2,826 3.9 -19.9°
Enters shadow 21:04:10 -28° 173° (S) 7,721 6.5 -38.7°
